This demonstration page uses our WeatherBlox Daily Observations layout. Learn more.

Left ArrowRight Arrow

39.01783, -85.05884

Hourly Observations for September 26, 2017

Temp ( °F °C ) Dew Point ( °F °C ) Humidity (%) Winds ( mph kmh ) Pressure ( in mb ) Visibility ( mi km ) Precip ( " mm )
12:52 am 00:52 Clear 73 22.8 65 18.3 76 76 Calm 29.97 1015 10 16 0.00 0.00
1:52 am 01:52 Clear 69 20.6 64 17.8 84 84 Calm 29.97 1015 10 16 0.00 0.00
2:52 am 02:52 Clear 67 19.4 64 17.8 91 91 Calm 29.98 1015 10 16 0.00 0.00
3:52 am 03:52 Clear 65 18.3 65 18.3 100 100 Calm 29.98 1015 10 16 0.00 0.00
4:52 am 04:52 Clear 66 18.9 65 18.3 96 96 Calm 29.98 1015 10 16 0.00 0.00
5:52 am 05:52 Clear 65 18.3 65 18.3 100 100 Calm 29.99 1016 10 16 0.00 0.00
6:52 am 06:52 Clear 65 18.3 65 18.3 100 100 Calm 30.00 1016 10 16 0.00 0.00
7:52 am 07:52 Sunny 64 17.8 64 17.8 100 100 Calm 30.01 1016 9 14 0.00 0.00
8:52 am 08:52 Sunny 73 22.8 67 19.4 81 81 Calm 30.01 1016 9 14 0.00 0.00
9:52 am 09:52 Sunny 78 25.6 67 19.4 69 69 Calm 30.02 1017 10 16 0.00 0.00
10:52 am 10:52 Sunny 82 27.8 68 20 63 63 Calm 30.02 1017 10 16 0.00 0.00
11:52 am 11:52 Mostly Sunny 84 28.9 66 18.9 55 55 WNW 5 7 30.01 1016 10 16 0.00 0.00
12:52 pm 12:52 Mostly Sunny 85 29.4 64 17.8 50 50 Calm 30.00 1016 10 16 0.00 0.00
1:52 pm 13:52 Mostly Sunny 87 30.6 64 17.8 46 46 W 8 13 29.98 1015 10 16 0.00 0.00
2:52 pm 14:52 Mostly Sunny 87 30.6 63 17.2 45 45 S 5 7 29.96 1015 10 16 0.00 0.00
3:52 pm 15:52 Mostly Sunny 88 31.1 63 17.2 43 43 SSW 6 9 29.95 1014 10 16 0.00 0.00
4:52 pm 16:52 Mostly Sunny 89 31.7 63 17.2 42 42 VRB 6 9 29.93 1014 10 16 0.00 0.00
5:52 pm 17:52 Mostly Sunny 87 30.6 63 17.2 45 45 W 6 9 29.93 1014 10 16 0.00 0.00
6:52 pm 18:52 Mostly Sunny 84 28.9 63 17.2 49 49 WSW 5 7 29.94 1014 10 16 0.00 0.00
7:52 pm 19:52 Clear 74 23.3 65 18.3 74 74 Calm 29.95 1014 10 16 0.00 0.00
8:52 pm 20:52 Clear 76 24.4 62 16.7 62 62 Calm 29.95 1014 10 16 0.00 0.00
9:52 pm 21:52 Clear 72 22.2 63 17.2 73 73 Calm 29.96 1015 10 16 0.00 0.00
10:52 pm 22:52 Clear 72 22.2 63 17.2 73 73 Calm 29.96 1015 10 16 0.00 0.00
11:52 pm 23:52 Clear 72 22.2 63 17.2 73 73 W 6 9 29.95 1014 10 16 0.00 0.00

Powered by AerisWeather